Regional Weather Roundup
Issued by NWS

Home | Current Version | Previous Version | Text Only | Print | Product List | Glossary Off
Versions: 1 2 3 4 5 6 7 8 9 10 11 12 13 14 15 16 17 18 19 20 21 22 23 24 25 26 27 28 29 30 31 32 33 34 35 36 37 38 39 40 41 42 43 44 45 46 47 48 49 50

000
ASUS43 KMKX 301100
RWRWI

WISCONSIN REGIONAL WEATHER ROUNDUP
NATIONAL WEATHER SERVICE MILWAUKEE/SULLIVAN WI
600 AM CDT SAT APR 30 2016

NOTE: "FAIR" INDICATES FEW OR NO CLOUDS BELOW 12,000 FEET WITH NO
SIGNIFICANT WEATHER AND/OR OBSTRUCTIONS TO VISIBILITY.

WIZ001-002-006>008-014>016-023>028-301200-
NORTHWEST WISCONSIN

CITY           SKY/WX    TMP DP  RH WIND       PRES   REMARKS
SUPERIOR ARPT  CLEAR     37  33  88 NE10G16   30.24S WCI  29
ASHLAND        MOCLDY    36  34  92 NE9       30.24R WCI  29
HAYWARD        CLEAR     36  29  75 NE8       30.19R WCI  30
SIREN          CLEAR     35  30  82 NE6       30.17R WCI  30
CUMBERLAND     CLEAR     36  30  80 NE7       30.14S WCI  30
RICE LAKE      CLEAR     37  32  79 NE7       30.16R WCI  32
CHETEK         CLEAR     38  32  78 CALM      30.15R
LADYSMITH      CLOUDY    38  31  77 NE6       30.17R WCI  33
EAU CLAIRE     NOT AVBL
MENOMONIE      CLOUDY    38  32  78 NE5       30.12F WCI  35
NEW RICHMOND   CLOUDY    38  31  77 NE6       30.12F WCI  33
OSCEOLA        CLEAR     39  32  75 NE7       30.14F WCI  34
$$

WIZ003>005-009-010-017-018-301200-
NORTH CENTRAL WISCONSIN

CITY           SKY/WX    TMP DP  RH WIND       PRES   REMARKS
MANITOWISH WTR CLOUDY    34  31  90 NE3       30.19R
ARBOR VITAE    CLOUDY    37  31  82 CALM      30.17F
WOODRUFF       CLOUDY    37  31  82 CALM      30.17F
RHINELANDER    CLOUDY    36  28  73 NE6       30.17F WCI  31
EAGLE RIVER    CLOUDY    31  29  93 CALM      30.18S
LAND O LAKES   CLOUDY    31  29  91 CALM      30.20R
PHILLIPS       CLEAR     33  29  86 NE6       30.16S WCI  28
TOMAHAWK       PTCLDY    34  29  80 NE3       30.17S
MEDFORD        CLOUDY    34  31  89 E3        30.13S
MERRILL        CLOUDY    33  29  83 NE5       30.16S WCI  29
$$

WIZ029-030-035-036-043>047-301200-
CENTRAL WISCONSIN

CITY           SKY/WX    TMP DP  RH WIND       PRES   REMARKS
WAUSAU         CLOUDY    39  29  67 E3        30.13S
MOSINEE        CLEAR     36  30  80 E8        30.14S WCI  29
MARSHFIELD     MOCLDY    38  30  73 E7        30.12R WCI  33
STEVENS POINT  CLOUDY    33  29  85 NE6       30.14S WCI  27
WAUPACA        MOCLDY    38  32  80 NW3       30.14F
WAUTOMA        MOCLDY    36  31  82 CALM      30.13F
WISC RAPIDS    CLOUDY    39  29  67 E7        30.14F WCI  34
CAMP DOUGLAS   NOT AVBL
$$

WIZ011>013-019>022-031-037>040-048>050-301200-
NORTHEAST WISCONSIN

CITY           SKY/WX    TMP DP  RH WIND       PRES   REMARKS
ANTIGO         CLOUDY    34  30  86 NE7       30.15F WCI  28
SHAWANO        PTCLDY    40  33  75 NE5       30.16R
OCONTO         PTCLDY    37  33  87 NE5       30.16S WCI  33
STURGEON BAY   CLOUDY    39  30  70 E7        30.18R WCI  34
GREEN BAY      PTCLDY    42  38  85 NE10      30.15S
MANITOWOC      NOT AVBL
APPLETON       PTCLDY    39  30  70 VRB5      30.12S
CLINTONVILLE   CLOUDY    37  30  75 NE5       30.14S WCI  34
OSHKOSH        CLOUDY    43  31  62 NE12      30.12F
$$

WIZ032>034-041-042-053>061-301200-
SOUTHWEST WISCONSIN

CITY           SKY/WX    TMP DP  RH WIND       PRES   REMARKS
LA CROSSE      CLOUDY    44  36  73 E5        30.08F
SPARTA         CLOUDY    33  33  99 CALM      30.10S
VIROQUA        CLOUDY    42  38  86 E13       30.05F
BOSCOBEL       CLOUDY    45  38  76 NE7       30.05F
PRAIRIE DU CHI CLOUDY    44  37  76 E8        30.02F
PLATTEVILLE    CLOUDY    42  40  93 E10       30.02F
$$

WIZ056-057-062-063-064-067-068-301200-
SOUTH CENTRAL WISCONSIN

CITY           SKY/WX    TMP DP  RH WIND       PRES   REMARKS
REEDSBURG      CLOUDY    41  34  76 NE6       30.09S
BARABOO/DELLS  CLOUDY    40  32  70 E5        30.09S
LONE ROCK      NOT AVBL
MINERAL POINT  CLOUDY    45  41  87 E10       30.04S
MADISON        CLOUDY    42  32  67 E9        30.08S
MIDDLETON      CLOUDY    44  36  72 E7        30.08S
WATERTOWN      CLOUDY    39  32  77 NE5       30.09S
MONROE         MOCLDY    41  37  87 NE13      30.03F
JANESVILLE     MOCLDY    45  37  76 E10       30.06S
$$

WIZ051-052-058>065-066-070>072-301200-
SOUTHEAST WISCONSIN

CITY           SKY/WX    TMP DP  RH WIND       PRES   REMARKS
MILWAUKEE      MOCLDY    42  37  82 NE9       30.10S
WAUKESHA       CLEAR     39  30  70 NE5       30.11S
MILWAUKEE/TIMM MOCLDY    39  32  75 NE3       30.12R
RACINE         CLOUDY    44  38  79 E12       30.11S
BURLINGTON     MOCLDY    41  36  83 NE8       30.07F
KENOSHA        MOCLDY    44  38  79 NE10      30.08F
FOND DU LAC    CLOUDY    37  30  75 CALM      30.11F
SHEBOYGAN      CLOUDY    34  30  85 NE6       30.13S WCI  29
WEST BEND      PTCLDY    34  30  86 NE3       30.11S
JUNEAU         CLOUDY    38  30  70 NE6       30.10F WCI  34
$$

LSZ147-162-301200-
LAKE SUPERIOR

STATION/POSITION TIME  TEMP    WIND        PRES    WAVE
                       AIR SEA DIR/SP/G            HT/PER
                 (UTC) (F)     (DEG/KT/KT) (MB)    (FT/S)
W MID LAKE BUOY  0950   38 36   50/ 12/ 14 1025.4S   1/ 3
DEVILS ISLAND    1000   39      60/ 16/ 18 1024.8F
SAXON HARBOR     1000   30     190/  3/  4 1023.0S
$$

LMZ867-665-643>646-301200-
LAKE MICHIGAN

STATION/POSITION TIME  TEMP    WIND        PRES    WAVE
                       AIR SEA DIR/SP/G            HT/PER
                 (UTC) (F)     (DEG/KT/KT) (MB)    (FT/S)
CHAMBERS ISLAND  1000   40      20/ 11/ 14 1021.7S
N MID LAKE BUOY  0950   40 38   40/ 12/ 14 1021.4F   1/ 2
NORTHPORT PIER   1001   39     310/  4/  7 1021.3F
ALGOMA LAKESHORE 1015           60/ 11/ 14   N/A
KEWAUNEE LAKESHO 1000   41      40/ 10/ 13 1020.2R
SHEBOYGAN LAKESH 1000   41      20/  9/ 10 1021.2R
PORT WASHINGTON  1000   41      20/  4/  6 1020.7F
S MID LAKE BUOY  0950   42 40   70/ 10/ 10 1019.4R   1
KENOSHA   LAKESH 1000   43      80/ 13/ 16 1018.6F
$$

TC  - TEMPERATURE IN CELSIUS
VSB - VISIBILITY IN STATUTE MILES
WCI - WIND CHILL INDEX
HX  - HEAT INDEX





USA.gov is the U.S. government's official web portal to all federal, state and local government web resources and services.